Temp
-6 -6 -6 -7 -7 -6 -7 -7 -6 -6 -7 -7 -7 -7 -8 -7 -7 -8 -7 -6 -6 -6 -6 -6 -7 -7 -7 -6 -6 -6 -5 -5 -6 -6 -6 -6 -6 -6 -6 -7 -7 -7 -7 -7 -7 -7 -7 -7 -7
-7 -7 -7 -7 -7 -7 -7 -7 -7 -7 -7 -7 -7 -7 -7 -7 -7 -7 -7 -6 -6 -6 -7 -7 -7 -7 -7 -7 -7 -6 -6 -6 -7 -7 -7 -7 -6 -7 -7 -7 -7 -7 -7 -8 -8 -7 -7 -8 -8
-7 -7 -7 -7 -7 -7 -9 -8 -8 -7 -7 -8 -8 -7 -7 -8 -7 -7 -7 -6 -6 -6 -7 -7 -7 -7 -7 -7 -7 -7 -7 -7 -7 -7 -7 -7 -7 -7 -7 -7 -7 -8 -8 -8 -8 -8 -8 -8 -8
-8 -7 -7 -7 -7 -8 -8 -8 -8 -8 -8 -8 -8 -8 -8 -8 -8 -8 -7 -7 -6 -6 -7 -6 -7 -7 -7 -7 -7 -7 -7 -7 -7 -7 -8 -8 -8 -7 -8 -7 -8 -8 -8 -8 -8 -8 -9 -8 -8
-8 -8 -7 -7 -7 -8 -8 -8 -8 -9 -8 -8 -8 -8 -8 -8 -9 -8 -7 -7 -7 -7 -7 -7 -7 -7 -7 -7 -7 -7 -7 -7 -7 -7 -8 -8 -8 -8 -9 -8 -8 -9 -9 -9 -9 -9 -9 -10 -9
-9 -8 -8 -7 -8 -8 -8 -9 -8 -8 -9 -9 -8 -8 -8 -8 -8 -8 -7 -7 -7 -8 -8 -8 -8 -8 -8 -7 -8 -8 -7 -7 -7 -8 -8 -9 -9 -9 -9 -9 -9 -10 -10 -10 -10 -10 -10 -10 -10
-9 -9 -8 -8 -8 -8 -9 -9 -9 -9 -9 -9 -9 -8 -8 -8 -8 -8 -8 -8 -8 -8 -9 -8 -8 -8 -8 -8 -8 -8 -7 -7 -8 -8 -9 -9 -9 -9 -9 -9 -9 -10 -10 -11 -10 -10 -10 -10 -11
-9 -9 -9 -8 -8 -9 -9 -9 -9 -9 -9 -9 -9 -8 -8 -8 -8 -8 -8 -8 -8 -8 -9 -9 -8 -8 -9 -8 -9 -8 -8 -8 -8 -8 -9 -10 -9 -10 -10 -10 -10 -11 -11 -11 -11 -11 -11 -11 -11
-10 -9 -8 -8 -8 -9 -9 -9 -9 -9 -9 -9 -9 -9 -8 -8 -8 -8 -9 -8 -9 -9 -9 -9 -8 -8 -9 -9 -9 -8 -8 -8 -8 -9 -10 -11 -11 -11 -11 -11 -11 -11 -11 -11 -11 -11 -11 -11 -12
-10 -9 -8 -9 -9 -9 -9 -10 -9 -9 -9 -9 -9 -9 -9 -8 -8 -9 -9 -9 -9 -9 -9 -9 -9 -9 -9 -9 -9 -9 -9 -9 -9 -10 -11 -11 -11 -11 -11 -12 -12 -12 -12 -11 -11 -11 -11 -11 -12
-10 -9 -9 -9 -10 -10 -10 -9 -10 -9 -9 -9 -9 -9 -9 -9 -9 -9 -9 -9 -9 -9 -9 -9 -9 -9 -9 -9 -9 -9 -10 -10 -10 -11 -11 -11 -11 -11 -12 -12 -11 -12 -12 -12 -12 -12 -12 -12 -12
-11 -10 -10 -10 -10 -11 -11 -11 -10 -10 -10 -10 -9 -9 -9 -9 -9 -9 -9 -9 -10 -10 -10 -9 -9 -9 -9 -9 -9 -9 -10 -11 -11 -11 -12 -12 -11 -11 -12 -12 -12 -12 -11 -11 -11 -11 -12 -11 -12
-11 -10 -11 -11 -11 -10 -11 -10 -10 -10 -10 -10 -10 -9 -9 -9 -9 -9 -9 -9 -9 -10 -10 -10 -9 -9 -9 -9 -9 -10 -11 -11 -11 -11 -12 -12 -11 -12 -12 -12 -12 -12 -12 -12 -12 -12 -11 -13 -13
-11 -11 -11 -11 -12 -12 -12 -11 -12 -9 -10 -10 -10 -10 -10 -10 -10 -9 -9 -10 -10 -10 -10 -10 -9 -9 -9 -9 -9 -10 -11 -11 -12 -12 -11 -11 -11 -12 -12 -12 -13 -13 -13 -12 -12 -12 -12 -13 -13
-11 -11 -11 -11 -11 -11 -12 -12 -9 -9 -10 -10 -10 -10 -10 -10 -9 -9 -10 -10 -11 -10 -10 -10 -10 -9 -8 -9 -10 -11 -11 -11 -11 -11 -11 -11 -11 -12 -12 -13 -12 -13 -13 -12 -12 -12 -13 -13 -14
-12 -12 -11 -10 -11 -10 -12 -10 -8 -10 -10 -11 -10 -10 -10 -10 -10 -10 -10 -10 -10 -9 -9 -9 -9 -9 -9 -9 -10 -11 -11 -11 -11 -11 -11 -11 -11 -12 -13 -13 -13 -13 -13 -13 -13 -12 -13 -13 -14
-12 -11 -11 -11 -11 -11 -12 -10 -8 -10 -11 -9 -10 -10 -10 -10 -10 -10 -10 -10 -9 -9 -9 -9 -9 -9 -9 -9 -10 -11 -11 -11 -11 -11 -11 -11 -12 -13 -12 -13 -13 -13 -13 -13 -13 -13 -13 -13 -13
-11 -12 -12 -12 -12 -13 -12 -10 -10 -10 -11 -10 -10 -9 -9 -9 -9 -10 -10 -9 -9 -9 -8 -8 -9 -9 -9 -9 -10 -10 -11 -11 -11 -11 -11 -11 -12 -12 -12 -13 -13 -13 -13 -13 -13 -13 -13 -13 -13
-12 -12 -12 -11 -12 -12 -11 -10 -10 -10 -10 -10 -10 -10 -9 -9 -9 -9 -9 -9 -9 -8 -8 -8 -8 -8 -9 -9 -9 -10 -10 -10 -10 -11 -11 -12 -12 -12 -13 -13 -13 -13 -13 -13 -13 -13 -14 -13 -14
-12 -12 -12 -12 -12 -12 -12 -10 -11 -11 -10 -10 -9 -9 -9 -9 -9 -9 -9 -9 -9 -8 -8 -8 -8 -8 -8 -8 -9 -9 -10 -10 -10 -11 -11 -11 -12 -12 -13 -13 -13 -13 -13 -13 -13 -13 -14 -13 -14
-13 -12 -12 -12 -12 -12 -12 -11 -10 -10 -10 -10 -10 -9 -9 -9 -9 -9 -9 -9 -9 -8 -8 -8 -8 -8 -8 -9 -9 -9 -10 -10 -11 -11 -11 -12 -12 -12 -12 -12 -13 -13 -13 -13 -13 -14 -13 -14 -14
-16 -15 -14 -14 -12 -12 -12 -11 -11 -10 -10 -10 -10 -9 -9 -10 -9 -9 -9 -8 -8 -8 -8 -8 -8 -9 -9 -9 -9 -10 -10 -10 -11 -11 -11 -12 -12 -12 -12 -12 -13 -13 -13 -14 -14 -13 -13 -13 -13
-21 -20 -22 -16 -14 -12 -12 -13 -10 -11 -10 -9 -10 -10 -10 -9 -9 -8 -8 -8 -8 -8 -8 -8 -9 -9 -9 -9 -10 -10 -10 -10 -11 -11 -11 -12 -12 -12 -12 -12 -13 -13 -14 -14 -14 -14 -13 -13 -13
-24 -23 -23 -22 -21 -17 -12 -15 -11 -11 -10 -10 -10 -10 -10 -9 -9 -8 -8 -8 -8 -8 -8 -9 -9 -9 -9 -9 -10 -10 -10 -11 -11 -11 -12 -12 -12 -12 -12 -13 -13 -13 -13 -13 -13 -13 -13 -13 -13
-24 -24 -23 -22 -22 -19 -14 -18 -11 -11 -11 -11 -10 -10 -10 -9 -9 -8 -8 -8 -8 -8 -9 -9 -9 -9 -9 -10 -10 -10 -11 -10 -11 -12 -12 -12 -12 -12 -12 -13 -13 -13 -13 -13 -13 -13 -13 -13 -13
-23 -24 -23 -21 -20 -20 -20 -19 -11 -11 -12 -11 -11 -10 -10 -9 -8 -8 -9 -9 -9 -9 -9 -9 -9 -9 -10 -10 -10 -10 -10 -11 -11 -12 -12 -12 -12 -12 -12 -13 -13 -12 -12 -13 -13 -13 -12 -13 -13
-23 -23 -23 -22 -21 -20 -19 -18 -12 -11 -12 -12 -10 -10 -10 -9 -9 -10 -10 -9 -9 -9 -9 -9 -10 -10 -10 -10 -10 -10 -10 -11 -11 -11 -12 -12 -12 -12 -12 -12 -12 -12 -12 -12 -12 -12 -12 -12 -13
-23 -23 -22 -22 -21 -20 -18 -17 -12 -12 -12 -12 -10 -9 -9 -10 -10 -10 -9 -10 -9 -9 -9 -9 -10 -10 -10 -10 -10 -10 -10 -11 -11 -11 -11 -11 -12 -12 -12 -12 -12 -12 -12 -12 -12 -12 -12 -13 -13
-22 -22 -22 -22 -21 -19 -18 -17 -15 -13 -12 -11 -11 -11 -11 -10 -10 -10 -10 -10 -10 -10 -10 -10 -10 -10 -10 -11 -10 -10 -10 -10 -11 -11 -11 -11 -11 -12 -12 -12 -12 -12 -12 -12 -12 -12 -13 -13 -13
-22 -22 -22 -22 -21 -20 -19 -17 -15 -13 -12 -12 -11 -10 -11 -11 -11 -10 -10 -10 -10 -10 -10 -10 -10 -10 -11 -10 -10 -10 -10 -10 -10 -11 -11 -11 -12 -12 -12 -12 -12 -12 -12 -12 -12 -12 -12 -13 -13
Height
5873 5874 5876 5878 5882 5883 5884 5886 5887 5890 5891 5892 5894 5896 5898 5898 5900 5902 5900 5900 5900 5900 5900 5900 5897 5895 5892 5891 5889 5888 5888 5886 5884 5881 5879 5877 5875 5874 5872 5870 5868 5866 5865 5862 5861 5860 5859 5858 5858
5868 5870 5872 5873 5877 5879 5882 5882 5884 5887 5886 5888 5890 5892 5894 5895 5894 5894 5896 5898 5898 5897 5896 5897 5896 5894 5892 5890 5889 5888 5887 5884 5881 5879 5876 5874 5871 5869 5869 5867 5865 5863 5861 5858 5856 5855 5854 5852 5852
5862 5865 5868 5869 5872 5875 5882 5879 5879 5881 5883 5884 5886 5888 5890 5891 5890 5890 5892 5894 5896 5894 5894 5893 5892 5891 5891 5890 5888 5887 5885 5882 5879 5876 5873 5872 5870 5867 5865 5863 5861 5859 5858 5856 5853 5850 5848 5847 5845
5856 5859 5863 5865 5870 5873 5871 5873 5874 5877 5878 5879 5882 5885 5886 5888 5887 5886 5888 5889 5892 5893 5891 5890 5890 5889 5889 5888 5885 5884 5882 5879 5876 5871 5869 5869 5868 5866 5863 5861 5859 5858 5855 5853 5850 5847 5844 5841 5840
5851 5853 5856 5860 5865 5867 5867 5867 5869 5873 5874 5876 5879 5881 5882 5883 5883 5883 5883 5885 5889 5890 5889 5889 5888 5887 5886 5886 5883 5882 5880 5877 5873 5869 5867 5865 5863 5861 5859 5857 5856 5855 5853 5850 5847 5843 5841 5839 5837
5844 5848 5850 5855 5861 5862 5861 5862 5864 5868 5870 5872 5877 5878 5877 5878 5878 5878 5879 5881 5884 5886 5885 5886 5885 5884 5883 5882 5881 5880 5877 5875 5871 5869 5866 5863 5861 5858 5855 5853 5851 5849 5847 5845 5842 5840 5838 5836 5833
5838 5840 5845 5849 5853 5852 5857 5857 5860 5865 5866 5868 5871 5874 5873 5874 5874 5874 5876 5877 5879 5881 5881 5881 5881 5879 5878 5878 5878 5877 5875 5872 5869 5867 5864 5860 5857 5855 5853 5850 5848 5845 5842 5841 5839 5836 5834 5832 5829
5830 5832 5837 5842 5846 5851 5847 5850 5855 5858 5861 5856 5866 5867 5867 5868 5870 5871 5873 5874 5874 5874 5874 5877 5877 5875 5874 5874 5873 5872 5871 5870 5866 5862 5860 5857 5854 5852 5850 5846 5843 5840 5838 5836 5834 5832 5830 5828 5825
5821 5823 5827 5836 5841 5846 5843 5845 5847 5850 5850 5855 5858 5858 5859 5863 5866 5866 5868 5869 5869 5869 5869 5871 5871 5869 5869 5868 5867 5866 5863 5863 5861 5859 5855 5851 5847 5845 5842 5840 5838 5836 5834 5832 5830 5828 5826 5824 5821
5812 5814 5823 5832 5830 5835 5837 5838 5840 5843 5846 5849 5850 5853 5855 5857 5861 5861 5863 5864 5865 5864 5865 5864 5864 5863 5863 5862 5861 5859 5857 5854 5854 5852 5849 5846 5843 5841 5838 5837 5834 5832 5830 5828 5826 5823 5821 5819 5817
5805 5806 5818 5820 5821 5823 5829 5833 5834 5837 5837 5843 5846 5846 5847 5850 5853 5856 5857 5858 5859 5859 5859 5859 5858 5855 5854 5854 5852 5851 5850 5848 5847 5847 5845 5842 5839 5836 5834 5831 5829 5827 5825 5820 5818 5817 5815 5813 5811
5790 5800 5806 5812 5806 5813 5819 5824 5825 5826 5832 5835 5835 5838 5841 5844 5847 5849 5850 5852 5853 5854 5854 5854 5852 5850 5848 5846 5846 5845 5843 5842 5842 5839 5839 5837 5834 5832 5828 5827 5825 5822 5817 5814 5812 5812 5808 5807 5806
5779 5790 5791 5795 5794 5802 5807 5810 5816 5818 5825 5827 5828 5828 5833 5837 5841 5843 5844 5845 5846 5847 5848 5846 5845 5844 5842 5841 5839 5839 5837 5835 5835 5833 5834 5832 5829 5826 5823 5821 5819 5816 5812 5810 5808 5803 5796 5799 5799
5772 5771 5776 5779 5783 5788 5792 5801 5801 5811 5816 5819 5817 5822 5826 5830 5833 5834 5837 5839 5839 5840 5841 5840 5839 5836 5835 5834 5832 5831 5830 5830 5830 5828 5827 5827 5822 5820 5818 5814 5813 5810 5807 5803 5802 5799 5796 5794 5791
5755 5754 5759 5765 5774 5778 5781 5782 5788 5806 5806 5806 5813 5816 5818 5822 5824 5826 5829 5829 5831 5833 5833 5832 5831 5829 5829 5827 5826 5823 5823 5824 5822 5821 5820 5818 5816 5813 5812 5809 5808 5805 5801 5798 5796 5793 5791 5787 5786
5740 5740 5743 5762 5761 5768 5759 5768 5788 5794 5793 5794 5804 5808 5811 5814 5815 5818 5821 5824 5825 5826 5825 5824 5823 5822 5821 5820 5818 5817 5815 5814 5815 5815 5812 5811 5809 5807 5805 5802 5800 5798 5796 5793 5790 5787 5784 5783 5780
5726 5730 5736 5745 5747 5749 5742 5757 5780 5782 5778 5787 5789 5796 5799 5803 5807 5810 5813 5816 5818 5817 5817 5816 5815 5813 5813 5811 5810 5810 5808 5808 5808 5807 5805 5804 5802 5800 5798 5795 5793 5792 5789 5787 5784 5781 5779 5776 5774
5720 5715 5719 5722 5734 5728 5731 5745 5761 5761 5768 5771 5776 5782 5790 5793 5798 5801 5806 5807 5808 5808 5806 5806 5805 5804 5803 5801 5803 5803 5801 5803 5801 5799 5798 5797 5795 5793 5791 5788 5786 5786 5782 5780 5777 5775 5773 5770 5768
5695 5694 5701 5709 5715 5712 5719 5731 5742 5747 5753 5757 5763 5769 5775 5780 5789 5792 5795 5797 5797 5796 5797 5796 5795 5794 5793 5793 5794 5794 5796 5795 5793 5793 5792 5789 5787 5785 5782 5781 5780 5778 5776 5773 5771 5768 5766 5764 5761
5674 5678 5687 5693 5697 5702 5708 5712 5725 5732 5737 5746 5751 5758 5764 5770 5776 5781 5784 5787 5788 5786 5786 5787 5786 5787 5785 5783 5785 5788 5787 5786 5785 5784 5783 5781 5779 5776 5775 5774 5772 5771 5769 5767 5764 5760 5760 5757 5754
5650 5658 5669 5673 5679 5687 5692 5696 5709 5719 5725 5734 5741 5748 5751 5758 5765 5769 5772 5774 5774 5775 5776 5776 5778 5777 5777 5779 5779 5779 5779 5778 5777 5776 5774 5772 5770 5769 5769 5767 5766 5765 5763 5761 5757 5755 5754 5749 5747
5626 5637 5642 5650 5658 5671 5679 5681 5694 5706 5713 5720 5730 5736 5743 5749 5753 5756 5758 5761 5763 5765 5766 5770 5770 5770 5770 5770 5771 5772 5771 5770 5769 5767 5766 5764 5764 5763 5762 5760 5759 5758 5756 5754 5751 5749 5747 5743 5740
5611 5618 5624 5630 5639 5651 5665 5662 5687 5696 5703 5713 5720 5727 5732 5737 5740 5744 5750 5751 5753 5756 5760 5761 5761 5762 5762 5762 5762 5762 5762 5762 5762 5760 5759 5757 5757 5756 5755 5754 5753 5752 5749 5747 5745 5742 5740 5737 5733
5602 5606 5611 5616 5622 5626 5650 5649 5677 5684 5698 5705 5709 5715 5721 5727 5730 5735 5739 5743 5746 5749 5751 5753 5753 5754 5754 5754 5754 5755 5755 5754 5754 5753 5752 5751 5751 5750 5749 5748 5747 5745 5742 5741 5739 5737 5734 5730 5727
5594 5599 5604 5608 5608 5611 5635 5635 5663 5679 5687 5691 5698 5704 5710 5717 5724 5728 5731 5735 5738 5741 5742 5744 5745 5746 5747 5747 5747 5747 5748 5747 5746 5746 5746 5745 5745 5744 5743 5742 5740 5738 5735 5734 5732 5729 5727 5724 5721
5589 5593 5598 5604 5610 5615 5623 5623 5657 5669 5675 5681 5688 5695 5702 5708 5712 5718 5723 5727 5731 5733 5735 5736 5738 5739 5740 5740 5741 5741 5741 5740 5740 5740 5740 5740 5739 5738 5736 5735 5733 5731 5730 5728 5726 5724 5722 5719 5716
5583 5584 5590 5597 5599 5609 5618 5622 5645 5656 5664 5673 5679 5687 5694 5698 5703 5710 5716 5720 5723 5726 5728 5730 5732 5733 5734 5735 5735 5734 5735 5735 5734 5734 5734 5733 5732 5731 5730 5729 5728 5726 5725 5722 5721 5718 5715 5714 5712
5576 5581 5583 5587 5594 5602 5614 5623 5639 5647 5656 5665 5671 5677 5685 5689 5697 5703 5709 5713 5716 5719 5723 5725 5727 5728 5728 5729 5729 5729 5730 5729 5729 5729 5728 5727 5726 5725 5724 5723 5722 5720 5719 5717 5716 5713 5711 5710 5708
5574 5574 5580 5584 5592 5602 5613 5621 5625 5635 5647 5656 5662 5670 5679 5683 5690 5696 5702 5706 5710 5714 5717 5719 5720 5721 5722 5723 5724 5724 5724 5724 5724 5723 5723 5722 5721 5720 5719 5718 5717 5716 5714 5713 5711 5710 5708 5706 5705
5571 5571 5575 5578 5587 5590 5595 5609 5614 5628 5639 5649 5657 5666 5672 5680 5685 5691 5696 5701 5705 5709 5712 5713 5715 5716 5717 5718 5719 5719 5719 5719 5719 5718 5717 5717 5716 5715 5714 5714 5713 5712 5711 5710 5708 5707 5705 5702 5701
Wind_Speed
29 29 29 31 30 27 27 27 27 25 23 22 19 16 14 14 10 10 9 9 12 13 14 15 16 15 18 22 23 23 23 20 27 33 32 31 29 26 25 23 23 24 26 26 25 24 23 22 23
31 31 33 33 31 28 27 29 28 28 26 25 22 21 17 13 11 9 10 11 16 16 15 16 23 20 17 23 22 22 23 23 28 34 33 32 33 32 28 25 24 26 28 28 29 28 26 26 25
33 34 36 36 34 31 20 32 33 30 28 28 26 23 18 13 14 14 15 15 18 20 21 25 25 20 19 23 24 23 23 24 29 35 35 33 33 34 33 30 28 26 27 29 29 30 30 30 29
35 37 38 37 33 31 35 35 35 33 31 31 28 23 20 17 19 18 19 17 21 23 27 25 25 20 19 26 27 25 23 24 29 35 36 36 35 34 33 31 30 30 29 29 30 30 31 31 32
37 38 39 38 35 34 37 39 38 35 34 31 26 25 24 22 21 22 23 21 20 22 23 25 22 25 21 27 26 24 23 25 29 35 37 39 39 38 34 32 31 29 27 27 26 26 27 28 30
40 41 41 39 36 34 40 40 41 38 36 34 28 27 29 27 25 27 27 24 24 24 31 23 24 29 29 28 27 24 25 28 34 35 36 39 40 38 36 33 32 31 29 27 25 25 27 26 28
42 42 42 41 40 41 41 41 41 38 37 36 33 28 31 30 30 30 30 28 25 30 28 27 26 24 24 27 27 28 28 30 33 35 35 38 38 39 36 33 32 31 31 30 28 29 28 29 29
42 46 44 44 42 41 46 43 43 43 38 44 33 35 35 34 33 33 32 30 32 36 33 28 27 28 28 32 34 32 31 34 34 35 34 37 38 38 34 30 30 31 32 33 32 32 31 31 30
43 49 49 43 43 42 45 45 46 46 48 42 40 40 40 40 35 37 34 33 34 31 27 29 30 32 33 36 38 36 37 36 36 35 36 39 41 40 37 33 31 31 33 35 35 34 33 31 28
50 52 49 42 47 42 46 48 48 48 49 45 44 40 39 42 39 38 36 36 39 33 34 38 38 36 37 37 38 38 38 39 37 39 39 40 40 40 37 33 33 29 29 33 37 39 35 32 28
60 62 50 47 47 46 47 51 50 50 54 50 44 44 45 44 42 39 36 41 40 33 35 37 39 40 41 37 40 41 40 40 41 40 39 40 39 41 36 31 35 35 40 40 33 43 37 30 31
62 60 59 51 53 51 51 54 57 57 54 50 53 48 48 46 46 42 43 43 36 37 38 39 42 41 39 41 42 41 41 42 43 42 41 41 38 41 35 32 34 38 32 37 40 39 43 35 32
62 61 60 58 60 56 53 58 57 59 58 57 56 57 54 53 50 48 47 44 40 37 38 42 45 43 44 42 44 43 44 44 43 45 43 41 39 37 33 36 36 42 39 41 43 42 39 29 34
51 58 66 67 65 62 59 60 59 59 59 60 61 57 55 51 51 51 47 41 41 41 40 42 45 48 46 46 45 47 47 46 45 45 43 42 39 36 34 38 35 37 36 44 36 39 39 34 31
55 59 60 63 67 66 62 66 69 58 60 65 62 61 60 56 53 50 45 47 41 43 44 46 46 49 49 48 47 50 52 49 48 46 44 43 39 38 37 37 35 37 38 42 42 38 38 33 32
58 61 62 57 59 62 75 73 66 64 64 65 62 62 61 58 55 55 50 46 46 46 47 49 50 51 50 50 50 51 53 50 50 46 43 40 41 39 35 36 38 38 37 42 41 38 35 33 33
63 64 63 58 60 63 73 68 62 66 72 68 67 65 63 62 57 53 51 48 47 49 49 52 54 56 53 54 51 49 52 52 51 46 41 42 43 39 40 41 38 38 40 42 42 36 35 33 33
61 66 66 66 61 67 69 65 60 69 68 76 76 74 69 68 63 57 54 49 49 52 53 53 53 54 54 56 52 51 53 50 46 44 43 44 43 43 44 43 41 40 41 42 38 35 33 37 37
69 71 71 69 67 71 69 63 59 61 62 61 75 73 68 69 66 58 55 51 51 53 54 52 50 51 53 51 51 51 49 45 45 42 42 42 46 48 47 41 38 40 40 41 36 35 35 35 36
73 76 73 72 72 71 69 68 62 59 61 59 62 64 66 69 64 64 60 53 52 52 52 50 49 46 48 51 50 46 44 45 43 43 43 44 42 43 42 40 38 41 40 35 36 29 32 38 36
76 77 75 77 76 73 71 71 66 61 59 57 56 55 49 53 52 50 49 50 49 49 49 48 45 45 45 43 41 42 42 40 41 42 41 40 40 40 38 38 33 34 34 34 31 35 36 37 35
70 74 80 81 80 76 72 73 69 64 61 57 52 47 43 42 40 42 45 46 46 47 46 44 44 42 39 37 33 36 35 37 40 41 37 35 33 30 29 27 29 31 31 31 34 36 39 36 37
45 59 48 74 81 80 74 77 68 64 61 54 47 40 37 38 40 41 41 44 45 45 43 41 37 36 34 28 29 32 35 37 39 37 30 28 28 28 26 26 27 29 30 33 37 39 34 35 33
27 35 43 45 44 66 76 68 64 61 54 48 45 40 38 36 38 39 40 40 41 41 39 33 32 29 28 27 29 33 36 35 34 29 27 26 27 25 26 25 28 29 32 35 36 34 34 32 27
18 23 30 44 49 63 70 52 64 55 51 47 42 41 39 37 36 35 37 37 37 37 36 30 30 25 25 27 30 31 31 29 27 27 26 27 27 25 25 26 28 31 33 33 33 32 29 26 23
23 19 30 34 40 46 47 43 60 53 45 46 43 38 37 36 39 39 38 33 29 30 29 31 24 23 26 28 28 28 26 26 25 24 26 27 26 25 26 29 28 27 29 31 30 27 25 22 21
24 29 20 34 26 38 40 52 55 54 55 27 37 40 37 40 40 35 30 26 27 27 28 24 24 26 26 26 25 24 24 23 23 25 25 25 25 26 27 26 26 27 28 27 25 22 21 19 19
21 25 24 33 27 26 32 39 55 50 43 34 35 37 42 43 35 29 27 27 28 27 23 24 24 23 24 24 24 22 23 22 22 23 24 24 23 24 24 25 26 26 25 24 20 20 19 19 15
24 18 23 24 28 17 24 32 46 51 48 43 26 24 25 24 30 30 28 29 27 23 24 22 20 21 24 24 22 22 19 19 21 21 22 22 22 22 22 21 23 21 22 19 17 16 18 18 13
16 20 27 26 26 26 24 18 45 53 44 51 46 33 30 21 27 33 31 26 24 24 22 18 18 20 20 21 19 17 17 17 19 20 20 21 21 21 20 20 18 20 18 15 16 15 18 19 11
Wind_Direction
220 217 219 217 217 220 219 226 234 235 229 229 226 219 214 223 233 235 275 298 327 302 293 301 307 319 339 336 325 323 321 327 342 345 341 339 340 336 331 327 329 323 318 315 313 314 316 318 318
221 219 219 218 217 219 223 228 231 229 232 234 234 225 235 248 261 258 289 314 338 325 309 325 311 294 311 325 317 312 309 315 331 336 337 337 337 337 337 333 329 322 316 316 320 318 318 318 321
221 219 219 218 217 216 206 220 226 231 232 233 237 239 247 265 270 276 295 311 324 328 325 312 323 292 286 310 311 308 302 305 321 327 334 335 334 332 329 330 329 323 316 313 313 315 318 317 319
221 219 220 220 219 215 222 219 224 230 232 236 240 250 258 259 265 272 287 308 315 316 321 316 308 300 283 303 309 306 303 306 321 331 334 334 331 328 326 325 324 321 318 312 310 313 317 317 317
226 222 221 219 215 216 222 226 226 226 236 240 243 252 260 258 258 269 284 298 306 311 321 320 319 313 284 299 304 300 303 308 317 326 329 330 330 329 327 324 319 316 312 308 310 314 316 317 313
229 227 223 217 216 216 223 225 227 229 231 236 238 249 257 263 264 272 286 296 303 310 313 305 305 303 289 286 295 294 297 300 309 313 320 326 324 324 325 323 319 315 312 310 313 312 313 318 312
230 233 226 221 215 211 220 222 227 228 232 237 238 247 257 261 266 270 279 291 299 305 306 294 304 303 284 290 299 296 296 300 311 311 313 321 323 320 322 319 312 307 307 309 313 315 317 314 313
231 231 230 225 215 216 217 221 224 226 227 237 239 245 252 255 261 266 273 286 295 308 306 299 300 304 292 287 297 299 295 289 302 313 315 319 321 319 319 311 305 302 303 306 309 313 314 312 312
229 230 229 226 226 223 221 222 223 227 231 235 234 241 252 254 257 265 268 282 293 301 306 310 308 303 297 294 292 297 298 298 303 311 318 322 324 322 316 311 303 305 305 304 308 307 304 310 314
230 229 227 229 233 229 228 224 225 227 234 234 238 245 250 256 258 261 270 282 284 287 299 304 305 302 297 292 291 296 298 298 306 313 319 322 319 317 310 301 303 306 305 304 306 300 299 304 307
235 231 230 230 238 236 230 229 231 232 235 232 236 244 249 253 256 258 265 272 276 283 295 298 299 300 300 298 297 300 297 298 304 311 316 318 315 311 303 298 300 299 298 294 297 301 288 296 300
242 235 233 231 237 236 234 232 233 233 235 237 239 244 248 251 252 252 259 267 274 278 290 292 294 296 297 291 292 294 296 295 300 308 314 314 309 303 297 295 291 300 294 308 303 295 297 291 303
247 239 238 239 240 232 234 235 231 237 236 238 244 246 247 249 251 254 258 262 274 282 286 288 291 294 292 289 290 291 292 295 300 302 306 309 303 300 292 296 287 290 301 302 300 294 294 299 301
251 249 242 241 240 237 230 234 233 233 234 234 239 244 245 245 247 251 254 263 272 280 279 282 290 291 288 287 286 285 287 289 295 298 302 304 298 296 295 293 291 291 292 301 302 298 303 303 300
249 248 247 245 243 239 238 229 233 229 235 236 238 239 243 243 243 250 257 265 269 274 277 282 284 286 287 285 282 281 284 288 295 299 301 302 296 293 290 290 292 285 290 296 300 293 296 312 306
249 248 249 246 247 243 243 238 232 234 232 236 234 237 242 245 248 251 256 259 265 271 276 279 282 282 282 282 279 280 284 290 295 298 299 299 293 292 288 286 287 283 288 291 296 295 295 302 302
248 247 248 248 248 247 246 243 235 237 241 237 236 235 237 240 243 249 254 261 267 269 272 274 275 277 278 277 277 278 282 288 294 295 295 292 290 289 289 284 281 280 284 288 292 292 295 303 303
254 251 247 246 243 247 247 243 242 243 244 243 241 242 242 243 245 250 256 263 265 268 270 269 268 269 270 272 275 276 279 290 290 291 291 288 287 288 286 277 275 278 280 287 287 287 297 299 304
245 247 246 244 243 247 247 246 241 244 242 242 243 243 246 249 249 251 258 261 263 265 264 265 267 267 267 270 273 275 283 286 284 288 287 286 286 283 280 273 277 278 281 285 285 278 288 296 301
243 242 245 246 244 244 247 245 243 242 242 243 243 245 249 245 248 256 255 256 260 260 260 262 266 269 268 268 271 279 280 281 285 285 286 287 280 274 272 276 273 275 281 287 286 295 293 297 296
242 241 239 240 241 240 243 244 242 242 244 245 245 248 250 242 248 253 245 247 250 253 256 260 263 266 270 276 276 276 279 282 279 283 287 275 268 271 276 280 279 278 283 284 293 293 294 296 294
237 231 228 231 235 238 239 243 241 239 241 243 244 247 248 246 250 245 241 243 248 252 257 264 268 273 278 275 273 275 273 274 278 283 275 274 277 277 278 276 275 280 286 290 290 288 293 293 294
244 230 231 228 229 232 234 239 235 239 238 242 247 247 247 243 242 245 243 246 249 254 259 264 271 272 268 262 263 266 271 274 277 271 269 271 272 274 274 279 283 280 283 286 288 291 290 291 292
245 236 223 232 221 228 227 234 233 236 240 243 245 242 240 240 240 241 241 245 249 253 259 267 261 255 254 263 269 271 272 272 265 265 269 273 275 274 279 279 279 280 282 285 287 287 289 292 292
258 233 236 230 231 228 222 230 227 232 234 237 237 237 235 236 239 240 240 243 249 255 259 251 247 251 259 268 269 267 265 260 262 266 270 272 273 275 279 283 283 281 281 283 285 288 294 291 293
248 239 230 229 233 235 226 226 220 225 229 234 231 232 232 233 235 235 239 244 248 244 242 240 246 257 262 264 262 263 257 256 260 265 267 269 269 278 285 286 281 278 280 282 287 289 288 290 289
218 232 231 219 227 227 228 228 214 213 221 226 228 226 226 230 231 235 238 233 231 232 233 238 248 252 254 253 261 254 252 257 264 264 264 266 275 280 281 278 277 279 282 286 287 285 284 281 290
227 215 220 210 219 223 219 217 213 214 213 208 210 214 220 225 229 230 220 224 225 227 231 240 246 245 251 256 251 252 258 262 261 261 266 272 275 274 275 276 279 281 283 288 285 283 279 282 291
225 242 203 206 199 206 210 212 216 212 210 195 185 190 182 198 211 215 215 220 219 220 229 237 242 250 254 251 254 254 254 258 263 268 270 271 271 274 280 276 278 278 286 282 281 285 288 290 285
221 226 219 203 198 195 180 186 211 208 215 206 204 185 200 220 202 200 210 211 211 218 226 238 249 253 245 245 244 250 254 260 263 266 269 268 270 276 273 278 278 283 279 281 289 286 285 281 269